Regional Weather Roundup
Issued by NWS

Home | Current Version | Previous Version | Text Only | Print | Product List | Glossary Off
Versions: 1 2 3 4 5 6 7 8 9 10 11 12 13 14 15 16 17 18 19 20 21 22 23 24 25 26 27 28 29 30 31 32 33 34 35 36 37 38 39 40 41 42 43 44 45 46 47 48 49 50

000
ASUS43 KLSX 231359
RWRMO

WEATHER SUMMARY FOR MISSOURI
NATIONAL WEATHER SERVICE SPRINGFIELD MO
900 AM CDT WED APR 23 2014

NOTE: "FAIR" INDICATES FEW OR NO CLOUDS BELOW 12,000 FEET WITH NO
       SIGNIFICANT WEATHER AND/OR OBSTRUCTIONS TO VISIBILITY.
       CURRENT SKY AND/OR WEATHER CONDITIONS ARE NOT AVAILABLE FOR
       CHILLICOTHE AND FARMINGTON.

MOZ001>031-035>038-043-044-053-054-231500-
...NORTHERN AND WESTERN MISSOURI...

CITY           SKY/WX    TMP DP  RH WIND       PRES   REMARKS
KANSAS CTY INT CLOUDY    54  37  52 SE12      30.02R
KANSAS C DTWN  CLOUDY    57  35  43 SE9       30.00F
LEE`S SUMMIT   CLOUDY    55  35  47 SE9       30.02S
ST JOSEPH      LGT RAIN  53  39  59 SE16      30.00S
KIRKSVILLE     PTSUNNY   47  35  63 E10       30.10R

$$
MOZ066>068-077>081-088>096-101>105-231500-
...SOUTHWEST MISSOURI...

CITY           SKY/WX    TMP DP  RH WIND       PRES   REMARKS
SPRINGFIELD    MOSUNNY   59  36  42 SE18      30.03S
JOPLIN         MOSUNNY   59  39  47 SE14G20   29.99S

$$
MOZ032>034-039>042-045>050-055>058-069>072-231500-
...CENTRAL MISSOURI...

CITY           SKY/WX    TMP DP  RH WIND       PRES   REMARKS
COLUMBIA       CLOUDY    54  36  50 SE10      30.08S
JEFFERSON CITY PTSUNNY   53  38  56 SE9       30.08F
ROLLA          SUNNY     54  34  46 SE12      30.07R
SEDALIA        CLOUDY    54  37  52 SE10      30.06R
OSAGE BEACH    MOSUNNY   55  34  44 E8        30.07F

$$
MOZ051-052-059>065-231500-
...EAST CENTRAL MISSOURI...

CITY           SKY/WX    TMP DP  RH WIND       PRES   REMARKS
ST LOUIS INTL  MOSUNNY   52  36  54 E14       30.14R
SPIRIT OF STL  MOSUNNY   52  38  58 E8        30.13R
ST CHARLES     SUNNY     51  33  50 E14       30.14R

$$
MOZ072>076-082>087-097>100-106>115-231500-
...SOUTH CENTRAL AND SOUTHEAST MISSOURI...

CITY           SKY/WX    TMP DP  RH WIND       PRES   REMARKS
CAPE GIRARDEAU SUNNY     57  42  57 E8        30.10R
FARMINGTON     SUNNY     54  37  54 E6        30.12S
POPLAR BLUFF   SUNNY     58  40  51 NE7       30.07S
WEST PLAINS    SUNNY     57  32  38 E14       30.06F

$$



USA.gov is the U.S. government's official web portal to all federal, state and local government web resources and services.